Time,TemperatureF,DewpointF,PressureIn,WindDirection,WindDirectionDegrees,WindSpeedMPH,WindSpeedGustMPH,Humidity,HourlyPrecipIn,Conditions,Clouds,dailyrainin,SoftwareType,DateUTC
2013-02-28 00:02:00,34.9,34.0,29.56,West,271,3.0,-999.0,97,-99.99,,,0.22,weatherlink.com 1.10,2013-02-28 05:02:00,
2013-02-28 00:17:00,34.8,34.0,29.56,West,275,5.0,-999.0,97,-99.99,,,0.23,weatherlink.com 1.10,2013-02-28 05:17:00,
2013-02-28 00:32:00,34.9,34.0,29.55,West,264,1.0,-999.0,97,-99.99,,,0.24,weatherlink.com 1.10,2013-02-28 05:32:00,
2013-02-28 00:47:00,34.9,34.0,29.55,WNW,292,2.0,-999.0,97,-99.99,,,0.24,weatherlink.com 1.10,2013-02-28 05:47:00,
2013-02-28 01:02:00,34.7,34.0,29.55,West,269,3.0,-999.0,97,-99.99,,,0.25,weatherlink.com 1.10,2013-02-28 06:02:00,
2013-02-28 01:17:00,34.4,34.0,29.55,West,271,4.0,-999.0,97,-99.99,,,0.26,weatherlink.com 1.10,2013-02-28 06:17:00,
2013-02-28 01:32:00,34.2,34.0,29.55,SW,236,0.0,-999.0,97,-99.99,,,0.26,weatherlink.com 1.10,2013-02-28 06:32:00,
2013-02-28 01:47:00,34.1,33.0,29.55,WSW,254,3.0,-999.0,97,-99.99,,,0.27,weatherlink.com 1.10,2013-02-28 06:47:00,
2013-02-28 02:02:00,34.1,33.0,29.55,West,267,1.0,-999.0,97,-99.99,,,0.27,weatherlink.com 1.10,2013-02-28 07:02:00,
2013-02-28 02:17:00,34.1,33.0,29.55,WSW,247,3.0,-999.0,97,-99.99,,,0.27,weatherlink.com 1.10,2013-02-28 07:17:00,
2013-02-28 02:47:00,34.3,34.0,29.55,West,269,4.0,-999.0,97,-99.99,,,0.28,weatherlink.com 1.10,2013-02-28 07:47:00,
2013-02-28 03:02:00,34.3,34.0,29.54,West,276,4.0,-999.0,97,-99.99,,,0.28,weatherlink.com 1.10,2013-02-28 08:02:00,
2013-02-28 03:32:00,34.2,34.0,29.54,West,271,0.0,-999.0,97,-99.99,,,0.28,weatherlink.com 1.10,2013-02-28 08:32:00,
2013-02-28 03:47:00,34.1,33.0,29.54,West,271,0.0,-999.0,97,-99.99,,,0.28,weatherlink.com 1.10,2013-02-28 08:47:00,
2013-02-28 04:02:00,34.1,33.0,29.54,West,261,2.0,-999.0,97,-99.99,,,0.28,weatherlink.com 1.10,2013-02-28 09:02:00,
2013-02-28 04:17:00,34.1,33.0,29.54,WSW,248,1.0,-999.0,97,-99.99,,,0.28,weatherlink.com 1.10,2013-02-28 09:17:00,
2013-02-28 04:47:00,34.1,33.0,29.54,SW,236,3.0,-999.0,97,-99.99,,,0.28,weatherlink.com 1.10,2013-02-28 09:47:00,
2013-02-28 05:02:00,34.1,33.0,29.54,SW,228,0.0,-999.0,96,-99.99,,,0.28,weatherlink.com 1.10,2013-02-28 10:02:00,
2013-02-28 05:17:00,34.1,33.0,29.55,WSW,252,0.0,-999.0,96,-99.99,,,0.28,weatherlink.com 1.10,2013-02-28 10:17:00,
2013-02-28 05:32:00,34.1,33.0,29.55,WSW,248,1.0,-999.0,96,-99.99,,,0.28,weatherlink.com 1.10,2013-02-28 10:32:00,
2013-02-28 06:17:00,34.2,33.0,29.56,WSW,248,4.0,-999.0,96,-99.99,,,0.28,weatherlink.com 1.10,2013-02-28 11:17:00,
2013-02-28 06:32:00,34.3,33.0,29.56,WSW,248,0.0,-999.0,96,-99.99,,,0.28,weatherlink.com 1.10,2013-02-28 11:32:00,
2013-02-28 06:47:00,34.3,33.0,29.56,WSW,246,1.0,-999.0,96,-99.99,,,0.28,weatherlink.com 1.10,2013-02-28 11:47:00,
2013-02-28 07:02:00,34.3,33.0,29.57,WSW,246,0.0,-999.0,96,-99.99,,,0.28,weatherlink.com 1.10,2013-02-28 12:02:00,
2013-02-28 07:32:00,34.4,33.0,29.57,WSW,246,0.0,-999.0,96,-99.99,,,0.28,weatherlink.com 1.10,2013-02-28 12:32:00,
2013-02-28 07:47:00,34.4,33.0,29.57,SW,234,2.0,-999.0,96,-99.99,,,0.28,weatherlink.com 1.10,2013-02-28 12:47:00,
2013-02-28 08:02:00,34.5,34.0,29.57,WSW,240,3.0,-999.0,96,-99.99,,,0.29,weatherlink.com 1.10,2013-02-28 13:02:00,
2013-02-28 09:02:00,35.2,35.0,29.58,SW,227,1.0,-999.0,97,-99.99,,,0.29,weatherlink.com 1.10,2013-02-28 14:02:00,
2013-02-28 09:17:00,35.3,35.0,29.58,SW,231,2.0,-999.0,97,-99.99,,,0.29,weatherlink.com 1.10,2013-02-28 14:17:00,
2013-02-28 09:47:00,35.2,34.0,29.58,SW,219,2.0,-999.0,96,-99.99,,,0.29,weatherlink.com 1.10,2013-02-28 14:47:00,
2013-02-28 10:03:00,35.3,34.0,29.58,WNW,296,0.0,-999.0,96,-99.99,,,0.29,weatherlink.com 1.10,2013-02-28 15:03:00,
2013-02-28 10:18:00,35.3,34.0,29.58,WNW,286,2.0,-999.0,95,-99.99,,,0.29,weatherlink.com 1.10,2013-02-28 15:18:00,
2013-02-28 10:33:00,35.3,34.0,29.57,WNW,292,0.0,-999.0,95,-99.99,,,0.29,weatherlink.com 1.10,2013-02-28 15:33:00,
2013-02-28 10:48:00,36.0,35.0,29.58,SW,228,1.0,-999.0,95,-99.99,,,0.29,weatherlink.com 1.10,2013-02-28 15:48:00,
2013-02-28 11:03:00,36.4,35.0,29.58,SSW,210,3.0,-999.0,95,-99.99,,,0.29,weatherlink.com 1.10,2013-02-28 16:03:00,
2013-02-28 11:33:00,37.0,35.0,29.58,WSW,239,3.0,-999.0,92,-99.99,,,0.29,weatherlink.com 1.10,2013-02-28 16:33:00,
2013-02-28 11:48:00,36.8,34.0,29.58,West,273,0.0,-999.0,89,-99.99,,,0.29,weatherlink.com 1.10,2013-02-28 16:48:00,
2013-02-28 12:33:00,37.7,34.0,29.57,West,264,1.0,-999.0,87,-99.99,,,0.29,weatherlink.com 1.10,2013-02-28 17:33:00,
2013-02-28 13:03:00,39.2,35.0,29.56,NNW,342,3.0,-999.0,83,-99.99,,,0.29,weatherlink.com 1.10,2013-02-28 18:03:00,
2013-02-28 13:18:00,38.9,35.0,29.56,WNW,290,2.0,-999.0,84,-99.99,,,0.29,weatherlink.com 1.10,2013-02-28 18:18:00,
2013-02-28 13:33:00,38.6,34.0,29.56,NNW,335,3.0,-999.0,82,-99.99,,,0.29,weatherlink.com 1.10,2013-02-28 18:33:00,
2013-02-28 13:48:00,37.1,34.0,29.57,NNE,19,0.0,-999.0,87,-99.99,,,0.29,weatherlink.com 1.10,2013-02-28 18:48:00,
2013-02-28 14:03:00,38.3,36.0,29.56,NNE,18,2.0,-999.0,90,-99.99,,,0.00,weatherlink.com 1.10,2013-02-28 19:03:00,
2013-02-28 14:18:00,38.3,34.0,29.56,West,271,4.0,-999.0,85,-99.99,,,0.00,weatherlink.com 1.10,2013-02-28 19:18:00,
2013-02-28 14:33:00,38.5,34.0,29.57,West,266,3.0,-999.0,83,-99.99,,,0.00,weatherlink.com 1.10,2013-02-28 19:33:00,
2013-02-28 14:48:00,38.1,33.0,29.57,WNW,298,2.0,-999.0,83,-99.99,,,0.00,weatherlink.com 1.10,2013-02-28 19:48:00,
2013-02-28 15:03:00,38.8,34.0,29.57,WSW,243,1.0,-999.0,84,-99.99,,,0.00,weatherlink.com 1.10,2013-02-28 20:03:00,
2013-02-28 15:18:00,38.8,33.0,29.57,West,273,6.0,-999.0,81,-99.99,,,0.00,weatherlink.com 1.10,2013-02-28 20:18:00,
2013-02-28 15:33:00,39.7,33.0,29.57,North,355,4.0,-999.0,77,-99.99,,,0.00,weatherlink.com 1.10,2013-02-28 20:33:00,
2013-02-28 15:48:00,40.1,33.0,29.57,WNW,303,1.0,-999.0,75,-99.99,,,0.00,weatherlink.com 1.10,2013-02-28 20:48:00,
2013-02-28 16:03:00,39.1,32.0,29.57,WNW,282,5.0,-999.0,75,-99.99,,,0.00,weatherlink.com 1.10,2013-02-28 21:03:00,
2013-02-28 16:18:00,39.4,33.0,29.58,WNW,290,1.0,-999.0,78,-99.99,,,0.00,weatherlink.com 1.10,2013-02-28 21:18:00,
2013-02-28 16:33:00,40.0,32.0,29.58,West,265,7.0,-999.0,74,-99.99,,,0.00,weatherlink.com 1.10,2013-02-28 21:33:00,
2013-02-28 16:48:00,39.0,32.0,29.58,North,350,1.0,-999.0,76,-99.99,,,0.01,weatherlink.com 1.10,2013-02-28 21:48:00,
2013-02-28 17:03:00,38.3,32.0,29.59,NNE,29,0.0,-999.0,78,-99.99,,,0.01,weatherlink.com 1.10,2013-02-28 22:03:00,
2013-02-28 17:19:00,37.9,32.0,29.59,NW,319,4.0,-999.0,79,-99.99,,,0.01,weatherlink.com 1.10,2013-02-28 22:19:00,
2013-02-28 17:34:00,37.5,32.0,29.60,North,360,0.0,-999.0,80,-99.99,,,0.01,weatherlink.com 1.10,2013-02-28 22:34:00,
2013-02-28 17:49:00,37.3,32.0,29.60,North,9,0.0,-999.0,81,-99.99,,,0.01,weatherlink.com 1.10,2013-02-28 22:49:00,
2013-02-28 18:04:00,37.1,32.0,29.61,North,9,0.0,-999.0,82,-99.99,,,0.01,weatherlink.com 1.10,2013-02-28 23:04:00,
2013-02-28 18:19:00,36.5,32.0,29.61,NNE,27,3.0,-999.0,84,-99.99,,,0.01,weatherlink.com 1.10,2013-02-28 23:19:00,
2013-02-28 18:34:00,36.0,33.0,29.62,NNE,27,0.0,-999.0,87,-99.99,,,0.01,weatherlink.com 1.10,2013-02-28 23:34:00,
2013-02-28 18:49:00,35.5,32.0,29.62,North,9,0.0,-999.0,88,-99.99,,,0.01,weatherlink.com 1.10,2013-02-28 23:49:00,
2013-02-28 19:19:00,35.1,33.0,29.63,NNE,14,2.0,-999.0,91,-99.99,,,0.01,weatherlink.com 1.10,2013-03-01 00:19:00,
2013-02-28 19:34:00,34.8,33.0,29.63,North,11,0.0,-999.0,91,-99.99,,,0.01,weatherlink.com 1.10,2013-03-01 00:34:00,
2013-02-28 19:49:00,34.6,33.0,29.63,NNW,343,0.0,-999.0,92,-99.99,,,0.01,weatherlink.com 1.10,2013-03-01 00:49:00,
2013-02-28 20:04:00,34.4,32.0,29.63,NNW,333,0.0,-999.0,92,-99.99,,,0.01,weatherlink.com 1.10,2013-03-01 01:04:00,
2013-02-28 20:34:00,34.2,32.0,29.64,NNW,330,2.0,-999.0,93,-99.99,,,0.01,weatherlink.com 1.10,2013-03-01 01:34:00,
2013-02-28 20:49:00,33.9,32.0,29.64,NW,322,2.0,-999.0,93,-99.99,,,0.01,weatherlink.com 1.10,2013-03-01 01:49:00,
2013-02-28 21:04:00,33.8,32.0,29.64,WNW,297,2.0,-999.0,94,-99.99,,,0.01,weatherlink.com 1.10,2013-03-01 02:04:00,
2013-02-28 21:34:00,33.8,33.0,29.65,WNW,294,2.0,-999.0,95,-99.99,,,0.01,weatherlink.com 1.10,2013-03-01 02:34:00,
2013-02-28 22:04:00,33.9,33.0,29.65,NW,325,0.0,-999.0,95,-99.99,,,0.01,weatherlink.com 1.10,2013-03-01 03:04:00,
2013-02-28 22:19:00,33.8,33.0,29.66,NNE,19,0.0,-999.0,95,-99.99,,,0.01,weatherlink.com 1.10,2013-03-01 03:19:00,
2013-02-28 22:34:00,33.7,33.0,29.66,NE,44,0.0,-999.0,95,-99.99,,,0.01,weatherlink.com 1.10,2013-03-01 03:34:00,
2013-02-28 23:04:00,33.3,32.0,29.66,NE,42,0.0,-999.0,95,-99.99,,,0.01,weatherlink.com 1.10,2013-03-01 04:04:00,
2013-02-28 23:19:00,33.2,32.0,29.66,NNW,343,0.0,-999.0,96,-99.99,,,0.01,weatherlink.com 1.10,2013-03-01 04:19:00,
2013-02-28 23:35:00,33.1,32.0,29.67,NNE,13,1.0,-999.0,96,-99.99,,,0.01,weatherlink.com 1.10,2013-03-01 04:35:00,